STARLINK-36095

Last updated on Mon Dec 15 2025 00:02:12 GMT+0000 (Coordinated Universal Time)

1 66871U 25281Z 25348.25003472 -.01502459 00000+0 -62367-2 0 9994 2 66871 43.0004 112.8739 0001388 264.5376 321.6444 15.87355533 1678
UTC large
Height (km)
Speed (km/s)
/
Latitude / Longitude
Inclination (degrees)
Orbital Period (minutes)
Azimuth
Elevation
Range (km)
Doppler Factor

Next 0 passes for location: London (51.5072 / 0.1276)

Sorry there are no passes over London.